Tanana, AK

2:36 AM AKST on February 27, 2017 (GMT -0900)
Calhoun Memorial

Weather History for PATA - February, 2013

Change the Weather History Date:

Wednesday, February 6, 2013

  Actual Average Record
Temperature  
Mean Temperature 2 °F -  
Max Temperature 3 °F 4 °F 32 °F (1999)
Min Temperature 0 °F -12 °F -60 °F (1953)
Degree Days  
Heating Degree Days 64    
Moisture  
Dew Point -7 °F    
Average Humidity 70    
Maximum Humidity 75    
Minimum Humidity 62    
Precipitation  
Precipitation 0.00 in - - ()
Snow  
Snow 0.00 in - - ()
Snow Depth 13.00 in    
Sea Level Pressure  
Sea Level Pressure 29.76 in    
Wind  
Wind Speed 10 mph (East)    
Max Wind Speed 13 mph    
Max Gust Speed 18 mph    
Visibility 5 miles    
Events Snow    
Averages and records for this station are not official NWS values.
T = Trace of Precipitation, MM = Missing Value Source: NWS Daily Summary

Daily Weather History Graph

Daily Weather History Graph

Search for Another Location

Airport or City:

Trip Planner

Search our weather history database for the weather conditions in past years. The results will help you decide how hot, cold, wet, or windy it might be!

Date:

Astronomy

Feb. 06, 2013 Rise Set
Actual Time 9:38 AM AKST 5:07 PM AKST
Civil Twilight 8:41 AM AKST 6:04 PM AKST
Nautical Twilight 7:41 AM AKST 7:04 PM AKST
Astronomical Twilight 6:44 AM AKST 8:02 PM AKST
Moon 7:32 AM AKST (2/6) 12:38 PM AKST (2/6)
Length of Visible Light 9h 23m
Length of Day
7h 29m
Waning Crescent, 15% of the Moon is Illuminated
Feb 6
Waning Crescent
Feb 9
New
Feb 17
First Quarter
Feb 25
Full
Mar 4
Last Quarter

Hourly Weather History & Observations

Time (AKST) Temp. Windchill Dew Point Humidity Pressure Visibility Wind Dir Wind Speed Gust Speed Precip Events Conditions
12:52 AM 3.9 °F -13.0 °F -4.0 °F 70% 29.72 in 9.0 mi East 12.7 mph - N/A Snow Light Snow
1:52 AM 3.9 °F -12.2 °F -5.1 °F 66% 29.72 in 6.0 mi East 11.5 mph - N/A Snow Light Snow
2:52 AM 3.9 °F -12.2 °F -5.1 °F 66% 29.73 in 9.0 mi East 11.5 mph - N/A Snow Light Snow
3:52 AM 3.0 °F -11.5 °F -5.1 °F 69% 29.72 in 8.0 mi East 9.2 mph - N/A   Overcast
4:22 AM 3.2 °F -13.1 °F -5.8 °F 66% 29.70 in 2.5 mi East 11.5 mph - N/A Snow Light Snow
4:30 AM 3.2 °F -13.1 °F -5.8 °F 66% 29.70 in 4.0 mi East 11.5 mph - N/A Snow Light Snow
4:52 AM 1.9 °F -15.5 °F -6.0 °F 69% 29.73 in 6.0 mi East 12.7 mph 18.4 mph N/A Snow Light Snow
5:52 AM 1.9 °F -13.8 °F -5.1 °F 72% 29.73 in 5.0 mi East 10.4 mph - N/A Snow Light Snow
6:18 AM 1.4 °F -13.5 °F -5.8 °F 72% 29.70 in 2.5 mi East 9.2 mph - N/A Snow Light Snow
6:42 AM 1.4 °F -12.5 °F -5.8 °F 72% 29.70 in 3.0 mi East 8.1 mph - N/A Snow Light Snow
6:52 AM 1.9 °F -11.8 °F -5.1 °F 72% 29.73 in 6.0 mi East 8.1 mph - N/A Snow Light Snow
7:18 AM 1.4 °F -11.3 °F -5.8 °F 72% 29.71 in 2.5 mi East 6.9 mph - N/A Snow Light Snow
7:29 AM 1.4 °F -12.5 °F -5.8 °F 72% 29.71 in 3.0 mi East 8.1 mph - N/A Snow Light Snow
7:52 AM 1.0 °F -12.9 °F -5.1 °F 75% 29.74 in 2.5 mi East 8.1 mph - N/A Snow Light Snow
7:59 AM 1.4 °F -12.5 °F -5.8 °F 72% 29.72 in 2.0 mi East 8.1 mph - N/A Snow Light Snow
8:30 AM 1.4 °F -11.3 °F -5.8 °F 72% 29.72 in 3.0 mi East 6.9 mph - N/A Snow Light Snow
8:52 AM 1.0 °F -11.7 °F -6.0 °F 72% 29.76 in 6.0 mi East 6.9 mph - N/A Snow Light Snow
9:30 AM 1.4 °F -12.5 °F -5.8 °F 72% 29.73 in 2.0 mi East 8.1 mph - N/A Snow Light Snow
9:52 AM 1.0 °F -10.3 °F -6.0 °F 72% 29.76 in 4.0 mi East 5.8 mph - N/A Snow Light Snow
10:52 AM 1.0 °F -11.7 °F -8.0 °F 66% 29.78 in 9.0 mi East 6.9 mph - N/A   Overcast
11:52 AM 1.0 °F -12.9 °F -8.0 °F 66% 29.79 in 10.0 mi East 8.1 mph - N/A   Overcast
12:33 PM 1.4 °F -12.5 °F -7.6 °F 66% 29.77 in 1.2 mi East 8.1 mph - N/A Snow Light Snow
12:46 PM 1.4 °F -13.5 °F -7.6 °F 66% 29.77 in 2.0 mi East 9.2 mph - N/A Snow Light Snow
12:52 PM 1.0 °F -12.9 °F -7.1 °F 69% 29.80 in 3.0 mi East 8.1 mph - N/A Snow Light Snow
1:52 PM -0.0 °F -13.0 °F -8.0 °F 69% 29.81 in 6.0 mi ESE 6.9 mph - N/A Snow Light Snow
2:20 PM -0.4 °F -13.4 °F -7.6 °F 72% 29.79 in 1.8 mi East 6.9 mph - N/A Snow Light Snow
2:31 PM -0.4 °F -14.7 °F -7.6 °F 72% 29.79 in 3.0 mi East 8.1 mph - N/A Snow Light Snow
2:52 PM -0.0 °F -15.3 °F -7.1 °F 72% 29.81 in 3.0 mi East 9.2 mph - N/A Snow Light Snow
2:59 PM -0.4 °F -15.7 °F -7.6 °F 72% 29.78 in 2.5 mi East 9.2 mph - N/A Snow Light Snow
3:06 PM -0.4 °F -12.0 °F -7.6 °F 72% 29.78 in 5.0 mi East 5.8 mph - N/A Snow Light Snow
3:52 PM -0.0 °F -14.2 °F -8.0 °F 69% 29.81 in 10.0 mi East 8.1 mph - N/A Snow Light Snow
4:52 PM -0.0 °F -13.0 °F -8.0 °F 69% 29.82 in 1.8 mi East 6.9 mph - N/A Snow Light Snow
5:00 PM -0.4 °F -15.7 °F -7.6 °F 72% 29.79 in 1.0 mi East 9.2 mph - N/A Snow Light Snow
5:42 PM -0.4 °F -16.7 °F -7.6 °F 72% 29.80 in 2.0 mi East 10.4 mph - N/A Snow Light Snow
5:52 PM -0.9 °F -17.4 °F -8.0 °F 72% 29.82 in 4.0 mi East 10.4 mph - N/A Snow Light Snow
6:52 PM -0.9 °F -16.4 °F -8.0 °F 72% 29.82 in 4.0 mi East 9.2 mph - N/A Snow Light Snow
7:52 PM -0.9 °F -19.1 °F -9.0 °F 69% 29.81 in 7.0 mi ENE 12.7 mph - N/A Snow Light Snow
8:52 PM -0.9 °F -18.3 °F -9.9 °F 66% 29.82 in 10.0 mi East 11.5 mph - N/A   Overcast
9:52 PM -0.9 °F -19.1 °F -11.0 °F 62% 29.81 in 10.0 mi East 12.7 mph - N/A Snow Light Snow
10:52 PM -0.9 °F -16.4 °F -9.9 °F 66% 29.80 in 9.0 mi East 9.2 mph - N/A Snow Light Snow
11:52 PM -0.9 °F -17.4 °F -9.0 °F 69% 29.79 in 10.0 mi East 10.4 mph - N/A   Overcast